CZ-6A DEB, 56646

Orbit data source: Space-Track

CZ-6A DEB, 56646 is space debris in SSO originally from a launch on Fri, 11 Nov 2022 UTC launched from the Taiyaun Space Center, China (TSC). Debris objects in space refer to the collection of defunct objects orbiting the Earth. Examples of debris include non-operational satellites, rocket bodies, and fragments generated from explosions, collisions, or faulty payload assembly.

Loading next visibility...
Identifier
56646, 2022-151AFW
Orbit
SSO
Country
Flag of CNCN / PRC
Related business
Manufacturer
SAST
Mission
Spacecraft
Bus & Motor
Unknown
Mass
Unknown
Launch date (UTC)
2022-11-11 (4 years ago)
Launch vehicle
Unknown
Launch site
Taiyaun Space Center, China (TSC)
Object type
Payload
Rocket body
Debris
Shape & HBR
Unknown shape, 0.1 m
Radar Cross Section
Small (<0.1 m²)

Expand to show TLE details & history
Last TLE update: 1 week ago

TLE from 1 week ago
0 CZ-6A DEB
1 56646U 22151AFW 26256.41319024  .00001082  00000-0  27516-3 0  9998
2 56646  98.6919 328.1447 0104856  46.6185 314.3682 14.49640402178843
Epoch: 2026-09-13T09:54Z
TLE epoch observation values (Epoch: 2026-09-13T09:54:59.636Z)
Latitude
-0.00001°
Longitude
-173.01198°
Altitude
678.077 km
Speed
7.545 km/s
True Right ascension
21h 52m 34s
True Declination
0° 00' 00"
Sunlit
Object was in full shadow at epoch
Visualization orbit readout
Latitude
Unknown
Longitude
Unknown
Altitude
Unknown
Speed
Unknown
Apparent Right ascension
Unknown
Apparent Declination
Unknown
Sunlit
N/A
Visualization observer readout
Local Sidereal Time
13:49:29
Azimuth
Unknown
Elevation
Unknown
Doppler factor
Unknown
Orbital elements
Apogee altitude
798.411 km
Perigee altitude
649.471 km
Semi-major axis
7,102.078 km
Eccentricity
0.01049
Inclination
98.6919°
RAAN
328.1447°
Arg. of periapsis
46.6185°
True anomaly
313.50134°
Mean anomaly
314.3682°
Eccentric anomaly
313.93557°
Mean motion
3.62631 °/min
Orbital period
99.27 mins
BSTAR
0.00027516
Loading maneuver chart data...
Computing Atmospheric mass density...
Loading historical data...
Loading historical data...
Loading historical data...
Loading historical data...
Loading historical data...
Loading historical data...
Loading historical data...

Documentation

Showing up to 5 results
|